Year,Month,Day,Hour,Minute,Value (Times are PST for temperature in C)
2010,04,02,00,00,3.90
2010,04,02,00,01,3.90
2010,04,02,00,02,3.90
2010,04,02,00,03,3.90
2010,04,02,00,04,3.80
2010,04,02,00,05,3.80
2010,04,02,00,06,3.80
2010,04,02,00,07,3.80
2010,04,02,00,08,3.80
2010,04,02,00,09,3.80
2010,04,02,00,10,3.80
2010,04,02,00,11,3.80
2010,04,02,00,12,3.80
2010,04,02,00,13,3.80
2010,04,02,00,14,3.80
2010,04,02,00,15,3.80
2010,04,02,00,16,3.80
2010,04,02,00,17,3.80
2010,04,02,00,18,3.80
2010,04,02,00,19,3.80
2010,04,02,00,20,3.80
2010,04,02,00,21,3.80
2010,04,02,00,22,3.80
2010,04,02,00,23,3.80
2010,04,02,00,24,3.80
2010,04,02,00,25,3.80
2010,04,02,00,26,3.80
2010,04,02,00,27,3.80
2010,04,02,00,28,3.80
2010,04,02,00,29,3.80
2010,04,02,00,30,3.80
2010,04,02,00,31,3.80
2010,04,02,00,32,3.80
2010,04,02,00,33,3.80
2010,04,02,00,34,3.80
2010,04,02,00,35,3.80
2010,04,02,00,36,3.80
2010,04,02,00,37,3.80
2010,04,02,00,38,3.80
2010,04,02,00,39,3.80
2010,04,02,00,40,3.80
2010,04,02,00,41,3.80
2010,04,02,00,42,3.70
2010,04,02,00,43,3.70
2010,04,02,00,44,3.70
2010,04,02,00,45,3.70
2010,04,02,00,46,3.70
2010,04,02,00,47,3.70
2010,04,02,00,48,3.70
2010,04,02,00,49,3.70
2010,04,02,00,50,3.70
2010,04,02,00,51,3.70
2010,04,02,00,52,3.70
2010,04,02,00,53,3.70
2010,04,02,00,54,3.70
2010,04,02,00,55,3.70
2010,04,02,00,56,3.70
2010,04,02,00,57,3.70
2010,04,02,00,58,3.70
2010,04,02,00,59,3.70
2010,04,02,01,00,3.70
2010,04,02,01,01,3.70
2010,04,02,01,02,3.70
2010,04,02,01,03,3.70
2010,04,02,01,04,3.70
2010,04,02,01,05,3.70
2010,04,02,01,06,3.70
2010,04,02,01,07,3.70
2010,04,02,01,08,3.70
2010,04,02,01,09,3.70
2010,04,02,01,10,3.70
2010,04,02,01,11,3.70
2010,04,02,01,12,3.70
2010,04,02,01,13,3.70
2010,04,02,01,14,3.70
2010,04,02,01,15,3.70
2010,04,02,01,16,3.70
2010,04,02,01,17,3.70
2010,04,02,01,18,3.70
2010,04,02,01,19,3.70
2010,04,02,01,20,3.70
2010,04,02,01,21,3.60
2010,04,02,01,22,3.60
2010,04,02,01,23,3.60
2010,04,02,01,24,3.60
2010,04,02,01,25,3.60
2010,04,02,01,26,3.60
2010,04,02,01,27,3.60
2010,04,02,01,28,3.60
2010,04,02,01,29,3.60
2010,04,02,01,30,3.60
2010,04,02,01,31,3.60
2010,04,02,01,32,3.60
2010,04,02,01,33,3.60
2010,04,02,01,34,3.60
2010,04,02,01,35,3.60
2010,04,02,01,36,3.60
2010,04,02,01,37,3.60
2010,04,02,01,38,3.60
2010,04,02,01,39,3.60
2010,04,02,01,40,3.60
2010,04,02,01,41,3.60
2010,04,02,01,42,3.60
2010,04,02,01,43,3.60
2010,04,02,01,44,3.60
2010,04,02,01,45,3.60
2010,04,02,01,46,3.60
2010,04,02,01,47,3.60
2010,04,02,01,48,3.60
2010,04,02,01,49,3.60
2010,04,02,01,50,3.60
2010,04,02,01,51,3.60
2010,04,02,01,52,3.60
2010,04,02,01,53,3.60
2010,04,02,01,54,3.60
2010,04,02,01,55,3.60
2010,04,02,01,56,3.60
2010,04,02,01,57,3.60
2010,04,02,01,58,3.60
2010,04,02,01,59,3.60
2010,04,02,02,00,3.60
2010,04,02,02,01,3.60
2010,04,02,02,02,3.60
2010,04,02,02,03,3.60
2010,04,02,02,04,3.60
2010,04,02,02,05,3.60
2010,04,02,02,06,3.60
2010,04,02,02,07,3.60
2010,04,02,02,08,3.60
2010,04,02,02,09,3.60
2010,04,02,02,10,3.60
2010,04,02,02,11,3.60
2010,04,02,02,12,3.60
2010,04,02,02,13,3.60
2010,04,02,02,14,3.60
2010,04,02,02,15,3.60
2010,04,02,02,16,3.60
2010,04,02,02,17,3.60
2010,04,02,02,18,3.60
2010,04,02,02,19,3.60
2010,04,02,02,20,3.60
2010,04,02,02,21,3.60
2010,04,02,02,22,3.60
2010,04,02,02,23,3.60
2010,04,02,02,24,3.60
2010,04,02,02,25,3.60
2010,04,02,02,26,3.60
2010,04,02,02,27,3.60
2010,04,02,02,28,3.50
2010,04,02,02,29,3.60
2010,04,02,02,30,3.60
2010,04,02,02,31,3.60
2010,04,02,02,32,3.60
2010,04,02,02,33,3.60
2010,04,02,02,34,3.60
2010,04,02,02,35,3.60
2010,04,02,02,36,3.60
2010,04,02,02,37,3.60
2010,04,02,02,38,3.60
2010,04,02,02,39,3.60
2010,04,02,02,40,3.60
2010,04,02,02,41,3.60
2010,04,02,02,42,3.60
2010,04,02,02,43,3.60
2010,04,02,02,44,3.60
2010,04,02,02,45,3.60
2010,04,02,02,46,3.60
2010,04,02,02,47,3.60
2010,04,02,02,48,3.60
2010,04,02,02,49,3.60
2010,04,02,02,50,3.60
2010,04,02,02,51,3.60
2010,04,02,02,52,3.60
2010,04,02,02,53,3.50
2010,04,02,02,54,3.60
2010,04,02,02,55,3.50
2010,04,02,02,56,3.50
2010,04,02,02,57,3.50
2010,04,02,02,58,3.50
2010,04,02,02,59,3.50
2010,04,02,03,00,3.50
2010,04,02,03,01,3.50
2010,04,02,03,02,3.50
2010,04,02,03,03,3.50
2010,04,02,03,04,3.50
2010,04,02,03,05,3.50
2010,04,02,03,06,3.50
2010,04,02,03,07,3.50
2010,04,02,03,08,3.50
2010,04,02,03,09,3.50
2010,04,02,03,10,3.50
2010,04,02,03,11,3.50
2010,04,02,03,12,3.50
2010,04,02,03,13,3.50
2010,04,02,03,14,3.50
2010,04,02,03,15,3.50
2010,04,02,03,16,3.50
2010,04,02,03,17,3.50
2010,04,02,03,18,3.50
2010,04,02,03,19,3.50
2010,04,02,03,20,3.50
2010,04,02,03,21,3.50
2010,04,02,03,22,3.50
2010,04,02,03,23,3.50
2010,04,02,03,24,3.50
2010,04,02,03,25,3.50
2010,04,02,03,26,3.50
2010,04,02,03,27,3.50
2010,04,02,03,28,3.50
2010,04,02,03,29,3.50
2010,04,02,03,30,3.50
2010,04,02,03,31,3.50
2010,04,02,03,32,3.50
2010,04,02,03,33,3.50
2010,04,02,03,34,3.50
2010,04,02,03,35,3.50
2010,04,02,03,36,3.50
2010,04,02,03,37,3.50
2010,04,02,03,38,3.50
2010,04,02,03,39,3.50
2010,04,02,03,40,3.50
2010,04,02,03,41,3.50
2010,04,02,03,42,3.50
2010,04,02,03,43,3.40
2010,04,02,03,44,3.40
2010,04,02,03,45,3.40
2010,04,02,03,46,3.40
2010,04,02,03,47,3.40
2010,04,02,03,48,3.40
2010,04,02,03,49,3.40
2010,04,02,03,50,3.40
2010,04,02,03,51,3.40
2010,04,02,03,52,3.40
2010,04,02,03,53,3.40
2010,04,02,03,54,3.40
2010,04,02,03,55,3.30
2010,04,02,03,56,3.30
2010,04,02,03,57,3.30
2010,04,02,03,58,3.30
2010,04,02,03,59,3.30
2010,04,02,04,00,3.30
2010,04,02,04,01,3.30
2010,04,02,04,02,3.30
2010,04,02,04,06,3.30
2010,04,02,04,07,3.30
2010,04,02,04,08,3.30
2010,04,02,04,09,3.30
2010,04,02,04,10,3.30
2010,04,02,04,11,3.30
2010,04,02,04,12,3.30
2010,04,02,04,13,3.30
2010,04,02,04,14,3.30
2010,04,02,04,15,3.30
2010,04,02,04,16,3.30
2010,04,02,04,17,3.30
2010,04,02,04,18,3.30
2010,04,02,04,19,3.30
2010,04,02,04,20,3.30
2010,04,02,04,21,3.30
2010,04,02,04,22,3.30
2010,04,02,04,23,3.30
2010,04,02,04,24,3.30
2010,04,02,04,25,3.30
2010,04,02,04,26,3.30
2010,04,02,04,27,3.20
2010,04,02,04,28,3.30
2010,04,02,04,29,3.20
2010,04,02,04,30,3.20
2010,04,02,04,31,3.30
2010,04,02,04,32,3.20
2010,04,02,04,33,3.20
2010,04,02,04,34,3.20
2010,04,02,04,35,3.20
2010,04,02,04,36,3.20
2010,04,02,04,37,3.20
2010,04,02,04,38,3.20
2010,04,02,04,39,3.20
2010,04,02,04,40,3.20
2010,04,02,04,41,3.20
2010,04,02,04,42,3.20
2010,04,02,04,43,3.20
2010,04,02,04,44,3.20
2010,04,02,04,45,3.20
2010,04,02,04,46,3.20
2010,04,02,04,47,3.20
2010,04,02,04,48,3.30
2010,04,02,04,49,3.30
2010,04,02,04,50,3.30
2010,04,02,04,51,3.30
2010,04,02,04,52,3.30
2010,04,02,04,53,3.30
2010,04,02,04,54,3.30
2010,04,02,04,55,3.30
2010,04,02,04,56,3.30
2010,04,02,04,57,3.30
2010,04,02,04,58,3.30
2010,04,02,04,59,3.30
2010,04,02,05,00,3.30
2010,04,02,05,01,3.30
2010,04,02,05,02,3.30
2010,04,02,05,03,3.30
2010,04,02,05,04,3.30
2010,04,02,05,05,3.30
2010,04,02,05,06,3.30
2010,04,02,05,07,3.30
2010,04,02,05,08,3.30
2010,04,02,05,09,3.30
2010,04,02,05,10,3.30
2010,04,02,05,11,3.30
2010,04,02,05,12,3.30
2010,04,02,05,13,3.30
2010,04,02,05,14,3.30
2010,04,02,05,15,3.30
2010,04,02,05,16,3.30
2010,04,02,05,17,3.30
2010,04,02,05,18,3.30
2010,04,02,05,19,3.30
2010,04,02,05,20,3.30
2010,04,02,05,21,3.30
2010,04,02,05,22,3.40
2010,04,02,05,23,3.40
2010,04,02,05,24,3.40
2010,04,02,05,25,3.40
2010,04,02,05,26,3.40
2010,04,02,05,27,3.40
2010,04,02,05,28,3.40
2010,04,02,05,29,3.40
2010,04,02,05,30,3.40
2010,04,02,05,31,3.40
2010,04,02,05,32,3.40
2010,04,02,05,33,3.50
2010,04,02,05,34,3.50
2010,04,02,05,35,3.50
2010,04,02,05,36,3.50
2010,04,02,05,37,3.60
2010,04,02,05,38,3.60
2010,04,02,05,39,3.60
2010,04,02,05,40,3.60
2010,04,02,05,41,3.70
2010,04,02,05,42,3.70
2010,04,02,05,43,3.70
2010,04,02,05,44,3.80
2010,04,02,05,45,3.80
2010,04,02,05,46,3.80
2010,04,02,05,47,3.80
2010,04,02,05,48,3.90
2010,04,02,05,49,3.90
2010,04,02,05,50,3.90
2010,04,02,05,51,3.90
2010,04,02,05,52,3.90
2010,04,02,05,53,3.90
2010,04,02,05,54,3.90
2010,04,02,05,55,4.00
2010,04,02,05,56,3.90
2010,04,02,05,57,4.00
2010,04,02,05,58,4.00
2010,04,02,05,59,4.00
2010,04,02,06,00,4.00
2010,04,02,06,01,4.00
2010,04,02,06,02,4.00
2010,04,02,06,03,4.00
2010,04,02,06,04,4.00
2010,04,02,06,05,4.00
2010,04,02,06,06,4.00
2010,04,02,06,07,4.00
2010,04,02,06,08,4.00
2010,04,02,06,09,4.00
2010,04,02,06,10,4.00
2010,04,02,06,11,4.00
2010,04,02,06,12,4.00
2010,04,02,06,13,4.00
2010,04,02,06,14,4.00
2010,04,02,06,15,4.00
2010,04,02,06,16,4.00
2010,04,02,06,17,4.00
2010,04,02,06,18,4.00
2010,04,02,06,19,4.00
2010,04,02,06,20,4.00
2010,04,02,06,21,4.00
2010,04,02,06,22,4.00
2010,04,02,06,23,4.00
2010,04,02,06,24,4.00
2010,04,02,06,25,4.00
2010,04,02,06,26,4.00
2010,04,02,06,27,4.00
2010,04,02,06,28,4.00
2010,04,02,06,29,4.00
2010,04,02,06,30,4.00
2010,04,02,06,31,4.00
2010,04,02,06,32,4.00
2010,04,02,06,33,4.00
2010,04,02,06,34,4.00
2010,04,02,06,35,4.00
2010,04,02,06,36,4.00
2010,04,02,06,37,4.00
2010,04,02,06,38,4.00
2010,04,02,06,39,4.00
2010,04,02,06,40,4.00
2010,04,02,06,41,4.00
2010,04,02,06,42,4.00
2010,04,02,06,43,4.00
2010,04,02,06,44,4.00
2010,04,02,06,45,4.00
2010,04,02,06,46,4.00
2010,04,02,06,47,4.00
2010,04,02,06,48,4.00
2010,04,02,06,49,4.00
2010,04,02,06,50,4.00
2010,04,02,06,51,4.00
2010,04,02,06,52,4.00
2010,04,02,06,53,4.00
2010,04,02,06,54,4.00
2010,04,02,06,55,4.00
2010,04,02,06,56,4.00
2010,04,02,06,57,4.00
2010,04,02,06,58,4.00
2010,04,02,06,59,4.00
2010,04,02,07,00,4.00
2010,04,02,07,01,4.00
2010,04,02,07,02,4.00
2010,04,02,07,03,4.00
2010,04,02,07,04,4.00
2010,04,02,07,05,4.00
2010,04,02,07,06,4.00
2010,04,02,07,07,4.00
2010,04,02,07,08,3.90
2010,04,02,07,09,3.90
2010,04,02,07,10,3.90
2010,04,02,07,11,3.90
2010,04,02,07,12,3.90
2010,04,02,07,13,3.90
2010,04,02,07,14,3.90
2010,04,02,07,15,3.90
2010,04,02,07,16,3.90
2010,04,02,07,17,3.90
2010,04,02,07,18,3.90
2010,04,02,07,19,3.90
2010,04,02,07,20,3.90
2010,04,02,07,21,3.90
2010,04,02,07,22,3.90
2010,04,02,07,23,3.90
2010,04,02,07,24,3.90
2010,04,02,07,25,3.90
2010,04,02,07,26,3.90
2010,04,02,07,27,3.90
2010,04,02,07,28,3.90
2010,04,02,07,29,3.90
2010,04,02,07,30,3.90
2010,04,02,07,31,3.90
2010,04,02,07,32,3.90
2010,04,02,07,33,3.80
2010,04,02,07,34,3.80
2010,04,02,07,35,3.80
2010,04,02,07,36,3.80
2010,04,02,07,37,3.80
2010,04,02,07,38,3.80
2010,04,02,07,39,3.80
2010,04,02,07,40,3.80
2010,04,02,07,41,3.80
2010,04,02,07,42,3.80
2010,04,02,07,43,3.80
2010,04,02,07,44,3.80
2010,04,02,07,45,3.80
2010,04,02,07,46,3.80
2010,04,02,07,47,3.80
2010,04,02,07,48,3.80
2010,04,02,07,49,3.80
2010,04,02,07,50,3.80
2010,04,02,07,51,3.80
2010,04,02,07,52,3.80
2010,04,02,07,53,3.80
2010,04,02,07,54,3.80
2010,04,02,07,55,3.80
2010,04,02,07,56,3.80
2010,04,02,07,57,3.80
2010,04,02,07,58,3.80
2010,04,02,07,59,3.80
2010,04,02,08,00,3.80
2010,04,02,08,01,3.70
2010,04,02,08,02,3.70
2010,04,02,08,03,3.70
2010,04,02,08,04,3.70
2010,04,02,08,05,3.70
2010,04,02,08,06,3.70
2010,04,02,08,07,3.60
2010,04,02,08,08,3.60
2010,04,02,08,09,3.60
2010,04,02,08,10,3.60
2010,04,02,08,11,3.60
2010,04,02,08,12,3.50
2010,04,02,08,13,3.50
2010,04,02,08,14,3.50
2010,04,02,08,15,3.50
2010,04,02,08,16,3.40
2010,04,02,08,17,3.40
2010,04,02,08,18,3.40
2010,04,02,08,19,3.40
2010,04,02,08,20,3.40
2010,04,02,08,21,3.40
2010,04,02,08,22,3.30
2010,04,02,08,23,3.30
2010,04,02,08,24,3.30
2010,04,02,08,25,3.30
2010,04,02,08,26,3.30
2010,04,02,08,27,3.30
2010,04,02,08,28,3.30
2010,04,02,08,29,3.30
2010,04,02,08,30,3.20
2010,04,02,08,31,3.20
2010,04,02,08,32,3.20
2010,04,02,08,33,3.20
2010,04,02,08,34,3.20
2010,04,02,08,35,3.20
2010,04,02,08,36,3.10
2010,04,02,08,37,3.10
2010,04,02,08,38,3.10
2010,04,02,08,39,3.10
2010,04,02,08,40,3.00
2010,04,02,08,41,3.00
2010,04,02,08,42,3.00
2010,04,02,08,43,2.90
2010,04,02,08,44,2.90
2010,04,02,08,45,2.90
2010,04,02,08,46,2.90
2010,04,02,08,47,2.90
2010,04,02,11,15,4.10
2010,04,02,11,16,4.20
2010,04,02,11,17,4.20
2010,04,02,14,01,6.20
2010,04,02,14,02,6.20
2010,04,02,14,03,6.20
2010,04,02,14,04,6.20
2010,04,02,14,05,6.20
2010,04,02,14,06,6.20
2010,04,02,14,07,6.20
2010,04,02,14,08,6.20
2010,04,02,14,09,6.20
2010,04,02,14,10,6.30
2010,04,02,14,11,6.30
2010,04,02,14,12,6.30
2010,04,02,14,13,6.30
2010,04,02,14,14,6.30
2010,04,02,14,15,6.30
2010,04,02,14,16,6.30
2010,04,02,14,17,6.30
2010,04,02,14,18,6.30
2010,04,02,14,19,6.30
2010,04,02,14,20,6.30
2010,04,02,14,21,6.30
2010,04,02,14,22,6.30
2010,04,02,14,23,6.20
2010,04,02,14,24,6.20
2010,04,02,14,25,6.20
2010,04,02,14,26,6.20
2010,04,02,14,27,6.10
2010,04,02,14,28,6.10
2010,04,02,14,29,6.10
2010,04,02,14,30,6.00
2010,04,02,14,31,6.00
2010,04,02,14,32,6.00
2010,04,02,14,33,5.90
2010,04,02,14,34,5.90
2010,04,02,14,35,5.90
2010,04,02,14,36,5.90
2010,04,02,14,37,5.90
2010,04,02,14,38,5.80
2010,04,02,14,39,5.80
2010,04,02,14,40,5.80
2010,04,02,14,41,5.70
2010,04,02,14,42,5.70
2010,04,02,14,43,5.70
2010,04,02,14,44,5.70
2010,04,02,14,45,5.60
2010,04,02,14,46,5.60
2010,04,02,14,47,5.60
2010,04,02,14,48,5.50
2010,04,02,14,49,5.50
2010,04,02,14,50,5.40
2010,04,02,14,51,5.40
2010,04,02,14,52,5.30
2010,04,02,14,53,5.30
2010,04,02,14,54,5.30
2010,04,02,14,55,5.20
2010,04,02,14,56,5.20
2010,04,02,14,57,5.20
2010,04,02,14,58,5.10
2010,04,02,14,59,5.10
2010,04,02,15,00,5.10
2010,04,02,15,01,5.10
2010,04,02,15,02,5.00
2010,04,02,15,03,5.00
2010,04,02,15,04,4.90
2010,04,02,15,05,4.90
2010,04,02,15,06,4.90
2010,04,02,15,07,4.80
2010,04,02,15,08,4.80
2010,04,02,15,09,4.70
2010,04,02,15,10,4.70
2010,04,02,15,11,4.70
2010,04,02,15,12,4.70
2010,04,02,15,13,4.60
2010,04,02,15,14,4.60
2010,04,02,15,15,4.60
2010,04,02,15,16,4.50
2010,04,02,15,17,4.50
2010,04,02,15,18,4.50
2010,04,02,15,19,4.40
2010,04,02,15,20,4.40
2010,04,02,15,21,4.40
2010,04,02,15,22,4.40
2010,04,02,15,23,4.40
2010,04,02,15,24,4.40
2010,04,02,15,25,4.30
2010,04,02,15,26,4.30
2010,04,02,15,27,4.30
2010,04,02,15,28,4.30
2010,04,02,15,29,4.30
2010,04,02,15,30,4.30
2010,04,02,15,31,4.30
2010,04,02,15,32,4.30
2010,04,02,15,33,4.30
2010,04,02,15,34,4.20
2010,04,02,15,35,4.20
2010,04,02,15,36,4.20
2010,04,02,15,37,4.20
2010,04,02,15,38,4.20
2010,04,02,15,39,4.20
2010,04,02,15,40,4.20
2010,04,02,15,41,4.20
2010,04,02,15,42,4.20
2010,04,02,15,43,4.20
2010,04,02,15,44,4.20
2010,04,02,15,45,4.20
2010,04,02,15,46,4.20
2010,04,02,15,47,4.20
2010,04,02,15,48,4.20
2010,04,02,15,49,4.20
2010,04,02,15,50,4.20
2010,04,02,15,51,4.20
2010,04,02,15,52,4.20
2010,04,02,15,53,4.20
2010,04,02,15,54,4.20
2010,04,02,15,55,4.20
2010,04,02,15,56,4.30
2010,04,02,15,57,4.30
2010,04,02,15,58,4.40
2010,04,02,15,59,4.40
2010,04,02,16,00,4.40
2010,04,02,16,01,4.40
2010,04,02,16,02,4.50
2010,04,02,16,03,4.50
2010,04,02,16,04,4.60
2010,04,02,16,05,4.60
2010,04,02,16,06,4.60
2010,04,02,16,07,4.70
2010,04,02,16,08,4.70
2010,04,02,16,09,4.70
2010,04,02,16,10,4.70
2010,04,02,16,11,4.80
2010,04,02,16,12,4.80
2010,04,02,16,13,4.80
2010,04,02,16,14,4.80
2010,04,02,16,15,4.80
2010,04,02,16,16,4.80
2010,04,02,16,17,4.80
2010,04,02,16,18,4.80
2010,04,02,16,19,4.80
2010,04,02,16,20,4.90
2010,04,02,16,21,4.90
2010,04,02,16,22,4.90
2010,04,02,16,23,4.90
2010,04,02,16,24,4.90
2010,04,02,16,25,4.90
2010,04,02,16,26,4.90
2010,04,02,16,27,4.90
2010,04,02,16,28,4.90
2010,04,02,16,29,4.90
2010,04,02,16,30,4.80
2010,04,02,16,31,4.80
2010,04,02,16,32,4.80
2010,04,02,16,33,4.80
2010,04,02,16,34,4.90
2010,04,02,16,35,4.80
2010,04,02,16,36,4.80
2010,04,02,16,37,4.80
2010,04,02,16,38,4.80
2010,04,02,16,39,4.80
2010,04,02,16,40,4.80
2010,04,02,16,41,4.80
2010,04,02,16,42,4.80
2010,04,02,16,43,4.80
2010,04,02,16,44,4.80
2010,04,02,16,45,4.80
2010,04,02,16,46,4.70
2010,04,02,16,47,4.70
2010,04,02,16,48,4.70
2010,04,02,16,49,4.70
2010,04,02,16,50,4.70
2010,04,02,16,51,4.70
2010,04,02,16,52,4.70
2010,04,02,16,53,4.70
2010,04,02,16,54,4.70
2010,04,02,16,55,4.70
2010,04,02,16,56,4.70
2010,04,02,16,57,4.70
2010,04,02,16,58,4.70
2010,04,02,16,59,4.70
2010,04,02,17,00,4.70
2010,04,02,17,01,4.70
2010,04,02,17,02,4.70
2010,04,02,17,03,4.70
2010,04,02,17,04,4.60
2010,04,02,17,05,4.60
2010,04,02,17,06,4.60
2010,04,02,17,07,4.60
2010,04,02,17,08,4.60
2010,04,02,17,09,4.60
2010,04,02,17,10,4.60
2010,04,02,17,11,4.60
2010,04,02,17,12,4.60
2010,04,02,17,13,4.60
2010,04,02,17,14,4.60
2010,04,02,17,15,4.60
2010,04,02,17,16,4.50
2010,04,02,17,17,4.50
2010,04,02,17,18,4.50
2010,04,02,18,44,4.30
2010,04,02,18,45,4.30
2010,04,02,18,46,4.30
2010,04,02,18,47,4.20
2010,04,02,18,48,4.20
2010,04,02,18,49,4.20
2010,04,02,18,50,4.20
2010,04,02,18,51,4.10
2010,04,02,18,52,4.10
2010,04,02,18,53,4.10
2010,04,02,18,54,4.00
2010,04,02,18,55,4.00
2010,04,02,18,56,3.90
2010,04,02,18,57,3.90
2010,04,02,18,58,3.80
2010,04,02,18,59,3.80
2010,04,02,19,00,3.80
2010,04,02,19,01,3.80
2010,04,02,19,02,3.70
2010,04,02,19,03,3.70
2010,04,02,19,04,3.70
2010,04,02,19,05,3.70
2010,04,02,19,06,3.60
2010,04,02,19,07,3.60
2010,04,02,19,08,3.60
2010,04,02,19,09,3.60
2010,04,02,19,10,3.50
2010,04,02,19,11,3.50
2010,04,02,19,12,3.50
2010,04,02,19,13,3.40
2010,04,02,19,14,3.40
2010,04,02,19,15,3.40
2010,04,02,19,16,3.40
2010,04,02,19,17,3.40
2010,04,02,19,18,3.30
2010,04,02,19,19,3.30
2010,04,02,19,20,3.30
2010,04,02,19,21,3.30
2010,04,02,19,22,3.30
2010,04,02,19,23,3.30
2010,04,02,19,24,3.30
2010,04,02,19,25,3.30
2010,04,02,19,26,3.20
2010,04,02,19,27,3.20
2010,04,02,19,28,3.20
2010,04,02,19,29,3.20
2010,04,02,19,30,3.20
2010,04,02,19,31,3.20
2010,04,02,19,32,3.20
2010,04,02,19,33,3.20
2010,04,02,19,34,3.20
2010,04,02,19,35,3.20
2010,04,02,19,36,3.20
2010,04,02,19,37,3.20
2010,04,02,19,38,3.30
2010,04,02,19,39,3.30
2010,04,02,19,40,3.30
2010,04,02,19,41,3.30
2010,04,02,19,42,3.30
2010,04,02,19,43,3.30
2010,04,02,19,44,3.30
2010,04,02,19,45,3.30
2010,04,02,19,46,3.30
2010,04,02,19,47,3.30
2010,04,02,19,48,3.30
2010,04,02,19,49,3.30
2010,04,02,19,50,3.30
2010,04,02,19,51,3.30
2010,04,02,19,52,3.30
2010,04,02,19,53,3.30
2010,04,02,19,54,3.30
2010,04,02,19,55,3.30
2010,04,02,19,56,3.30
2010,04,02,19,57,3.30
2010,04,02,19,58,3.30
2010,04,02,19,59,3.30
2010,04,02,20,00,3.30
2010,04,02,20,01,3.30
2010,04,02,20,02,3.30
2010,04,02,20,03,3.30
2010,04,02,20,04,3.40
2010,04,02,20,05,3.40
2010,04,02,20,06,3.40
2010,04,02,20,07,3.40
2010,04,02,20,08,3.50
2010,04,02,20,09,3.50
2010,04,02,20,10,3.50
2010,04,02,20,11,3.50
2010,04,02,20,12,3.50
2010,04,02,20,13,3.50
2010,04,02,20,14,3.50
2010,04,02,20,15,3.50
2010,04,02,20,16,3.60
2010,04,02,20,17,3.60
2010,04,02,20,18,3.60
2010,04,02,20,19,3.60
2010,04,02,20,20,3.60
2010,04,02,20,21,3.60
2010,04,02,20,22,3.60
2010,04,02,20,23,3.60
2010,04,02,20,24,3.60
2010,04,02,20,25,3.60
2010,04,02,20,26,3.60
2010,04,02,20,27,3.60
2010,04,02,20,28,3.60
2010,04,02,20,29,3.60
2010,04,02,20,30,3.60
2010,04,02,20,31,3.60
2010,04,02,20,32,3.60
2010,04,02,20,33,3.70
2010,04,02,20,34,3.70
2010,04,02,20,35,3.70
2010,04,02,20,36,3.70
2010,04,02,20,37,3.70
2010,04,02,20,38,3.70
2010,04,02,20,39,3.70
2010,04,02,20,40,3.70
2010,04,02,20,41,3.70
2010,04,02,20,42,3.70
2010,04,02,20,43,3.70
2010,04,02,20,44,3.70
2010,04,02,20,45,3.70
2010,04,02,20,46,3.60
2010,04,02,20,47,3.70
2010,04,02,20,48,3.70
2010,04,02,20,49,3.70
2010,04,02,20,50,3.70
2010,04,02,20,51,3.70
2010,04,02,20,52,3.70
2010,04,02,20,53,3.70
2010,04,02,20,54,3.70
2010,04,02,20,55,3.70
2010,04,02,20,56,3.70
2010,04,02,20,57,3.70
2010,04,02,20,58,3.70
2010,04,02,20,59,3.70
2010,04,02,21,00,3.70
2010,04,02,21,01,3.70
2010,04,02,21,02,3.70
2010,04,02,21,03,3.70
2010,04,02,21,04,3.70
2010,04,02,21,05,3.70
2010,04,02,21,06,3.70
2010,04,02,21,07,3.70
2010,04,02,21,08,3.70
2010,04,02,21,09,3.70
2010,04,02,21,10,3.80
2010,04,02,21,11,3.80
2010,04,02,21,12,3.80
2010,04,02,21,13,3.80
2010,04,02,21,14,3.80
2010,04,02,21,15,3.80
2010,04,02,21,16,3.80
2010,04,02,21,17,3.80
2010,04,02,21,18,3.80
2010,04,02,21,19,3.90
2010,04,02,21,20,3.90
2010,04,02,21,21,3.90
2010,04,02,21,22,3.90
2010,04,02,21,23,3.90
2010,04,02,21,24,3.90
2010,04,02,21,25,3.90
2010,04,02,21,26,3.90
2010,04,02,21,27,3.90
2010,04,02,21,28,3.90
2010,04,02,21,29,3.90
2010,04,02,21,30,3.90
2010,04,02,21,31,3.90
2010,04,02,21,32,3.90
2010,04,02,21,33,3.90
2010,04,02,21,34,3.90
2010,04,02,21,35,3.90
2010,04,02,21,36,3.80
2010,04,02,21,37,3.80
2010,04,02,21,38,3.80
2010,04,02,21,39,3.80
2010,04,02,21,40,3.80
2010,04,02,21,41,3.80
2010,04,02,21,42,3.80
2010,04,02,21,43,3.80
2010,04,02,21,44,3.80
2010,04,02,21,45,3.80
2010,04,02,21,46,3.80
2010,04,02,21,47,3.80
2010,04,02,21,48,3.80
2010,04,02,21,49,3.80
2010,04,02,21,50,3.80
2010,04,02,21,51,3.80
2010,04,02,21,52,3.80
2010,04,02,21,53,3.80
2010,04,02,21,54,3.80
2010,04,02,21,55,3.80
2010,04,02,21,56,3.80
2010,04,02,21,57,3.80
2010,04,02,21,58,3.80
2010,04,02,21,59,3.80
2010,04,02,22,00,3.80
2010,04,02,22,01,3.80
2010,04,02,22,02,3.80
2010,04,02,22,03,3.80
2010,04,02,22,04,3.80
2010,04,02,22,05,3.80
2010,04,02,22,06,3.80
2010,04,02,22,07,3.80
2010,04,02,22,08,3.80
2010,04,02,22,09,3.80
2010,04,02,22,10,3.80
2010,04,02,22,11,3.80
2010,04,02,22,12,3.80
2010,04,02,22,13,3.80
2010,04,02,22,14,3.80
2010,04,02,22,15,3.80
2010,04,02,22,16,3.80
2010,04,02,22,17,3.90
2010,04,02,22,18,3.90
2010,04,02,22,19,3.90
2010,04,02,22,20,3.90
2010,04,02,22,21,3.90
2010,04,02,22,22,3.90
2010,04,02,22,23,3.90
2010,04,02,22,24,3.90
2010,04,02,22,25,3.90
2010,04,02,22,26,3.90
2010,04,02,22,27,3.90
2010,04,02,22,28,3.90
2010,04,02,22,29,3.90
2010,04,02,22,30,3.90
2010,04,02,22,31,3.90
2010,04,02,22,32,3.90
2010,04,02,22,33,3.90
2010,04,02,22,34,3.90
2010,04,02,22,35,3.90
2010,04,02,22,36,3.90
2010,04,02,22,37,3.80
2010,04,02,22,38,3.80
2010,04,02,22,39,3.80
2010,04,02,22,40,3.90
2010,04,02,22,41,3.90
2010,04,02,22,42,3.90
2010,04,02,22,43,3.90
2010,04,02,22,44,3.90
2010,04,02,22,45,3.90
2010,04,02,22,46,3.90
2010,04,02,22,47,3.90
2010,04,02,22,48,3.90
2010,04,02,22,49,3.90
2010,04,02,22,50,3.90
2010,04,02,22,51,3.90
2010,04,02,22,52,3.90
2010,04,02,22,53,3.90
2010,04,02,22,54,3.90
2010,04,02,22,55,3.90
2010,04,02,22,56,3.90
2010,04,02,22,57,3.90
2010,04,02,22,58,3.90
2010,04,02,22,59,3.90
2010,04,02,23,00,3.80
2010,04,02,23,01,3.80
2010,04,02,23,02,3.80
2010,04,02,23,03,3.80
2010,04,02,23,04,3.80
2010,04,02,23,05,3.80
2010,04,02,23,06,3.80
2010,04,02,23,07,3.80
2010,04,02,23,08,3.80
2010,04,02,23,09,3.80
2010,04,02,23,10,3.80
2010,04,02,23,11,3.80
2010,04,02,23,12,3.80
2010,04,02,23,13,3.70
2010,04,02,23,14,3.70
2010,04,02,23,15,3.70
2010,04,02,23,16,3.70
2010,04,02,23,17,3.70
2010,04,02,23,18,3.70
2010,04,02,23,19,3.70
2010,04,02,23,20,3.60
2010,04,02,23,21,3.60
2010,04,02,23,22,3.60
2010,04,02,23,23,3.60
2010,04,02,23,24,3.60
2010,04,02,23,25,3.60
2010,04,02,23,26,3.60
2010,04,02,23,27,3.50
2010,04,02,23,28,3.50
2010,04,02,23,29,3.50
2010,04,02,23,30,3.60
2010,04,02,23,31,3.60
2010,04,02,23,32,3.60
2010,04,02,23,33,3.60
2010,04,02,23,34,3.60
2010,04,02,23,35,3.60
2010,04,02,23,36,3.60
2010,04,02,23,37,3.60
2010,04,02,23,38,3.60
2010,04,02,23,39,3.60
2010,04,02,23,40,3.60
2010,04,02,23,41,3.60
2010,04,02,23,42,3.60
2010,04,02,23,43,3.60
2010,04,02,23,44,3.60
2010,04,02,23,45,3.60
2010,04,02,23,46,3.50
2010,04,02,23,47,3.50
2010,04,02,23,48,3.50
2010,04,02,23,49,3.50
2010,04,02,23,50,3.50
2010,04,02,23,51,3.60
2010,04,02,23,52,3.60
2010,04,02,23,53,3.60
2010,04,02,23,54,3.60
2010,04,02,23,55,3.60
2010,04,02,23,56,3.60
2010,04,02,23,57,3.60
2010,04,02,23,58,3.60
2010,04,02,23,59,3.60
